Regional Weather Roundup
Issued by NWS

Home | Current Version | Previous Version | Text Only | Print | Product List | Glossary On
Versions: 1 2 3 4 5 6 7 8 9 10 11 12 13 14 15 16 17 18 19 20 21 22 23 24 25 26 27 28 29 30 31 32 33 34 35 36 37 38 39 40 41 42 43 44 45 46 47 48 49 50
000
ASUS43 KDMX 261506
RWRIA

WEATHER ROUNDUP FOR IOWA
NATIONAL WEATHER SERVICE DES MOINES IA
1000 AM CDT MON JUN 26 2017

NOTE: "FAIR" INDICATES FEW OR NO CLOUDS BELOW 12,000 FEET WITH NO
SIGNIFICANT WEATHER AND/OR OBSTRUCTIONS TO VISIBILITY.

* - THESE STATIONS ARE NOT NWS STATIONS...THUS NOT UNDER NWS
QUALITY CONTROL.  THEY ALSO DO NOT REPORT WEATHER SUCH
AS PRECIPITATION OR FOG.

IAZ001>003-012>014-020>022-031>034-043>046-261600-
   NORTHWEST IOWA

CITY           SKY/WX    TMP DP  RH WIND       PRES   REMARKS
CARROLL *      CLOUDY    64  55  72 N9        30.21S
CHEROKEE *     MOSUNNY   61  53  73 N3        30.22S
DENISON *      MOSUNNY   63  54  72 VRB5      30.23S
LE MARS *      SUNNY     64  52  63 NE6       30.23S
ORANGE CITY *  SUNNY     64  50  59 E5        30.23R
SHELDON *      SUNNY     63  50  63 NE6       30.22S
SIOUX CITY     SUNNY     66  55  67 CALM      30.21S
SPENCER        SUNNY     64  48  56 N10       30.22S
STORM LAKE *   MOSUNNY   63  52  67 NE8       30.22S
$$

IAZ055>058-069>071-079>083-090>094-261600-
   SOUTHWEST IOWA

CITY           SKY/WX    TMP DP  RH WIND       PRES   REMARKS
ATLANTIC *     SUNNY     63  52  67 S13       30.20F
AUDUBON *      LGT RAIN  59  55  88 S7        30.22R
CLARINDA *     CLOUDY    59  57  94 S8G14     30.22F
COUNCIL BLFS * CLOUDY    59  57  94 S9        30.19F
CRESTON *      CLOUDY    59  55  88 SE10      30.23F
HARLAN  *      MOSUNNY   63  54  72 S12       30.23S
LAMONI         LGT RAIN  56  53  90 SE6       30.27S
RED OAK *      CLOUDY    61  55  82 SE7       30.20F
SHENANDOAH *   CLOUDY    59  57  94 S10       30.20F
$$

IAZ047>049-059>061-072>074-084-261600-
   CENTRAL IOWA

CITY           SKY/WX    TMP DP  RH WIND       PRES   REMARKS
AMES           CLOUDY    63  55  75 W10       30.21R
ANKENY *       CLOUDY    61  55  82 W5        30.23R
BOONE *        MOSUNNY   63  54  72 W8        30.20S
CHARITON *     MOSUNNY   57  55  94 S14G22    30.20F
DES MOINES     CLOUDY    61  55  81 SW3       30.21R
GRINNELL*      PTSUNNY   63  52  68 SW12      30.22S
KNOXVILLE *    CLOUDY    59  54  82 W5        30.20R
MARSHALLTOWN   MOSUNNY   66  52  60 NW12      30.19R
NEWTON *       CLOUDY    61  54  77 W10       30.22R
PELLA *        PTSUNNY   60  54  82 W9        30.22S
PERRY *        CLOUDY    62  55  78 SW8       30.22R
$$

IAZ004>006-015-016-023>025-035-036-261600-
   NORTH CENTRAL IOWA

CITY           SKY/WX    TMP DP  RH WIND       PRES   REMARKS
ALGONA *       SUNNY     63  50  63 N9G16     30.21S
CLARION *        N/A     63  52  67 N9        30.20S
ESTHERVILLE    SUNNY     61  49  64 N9        30.22R
FORT DODGE *   MOSUNNY   63  50  63 CALM      30.22S
MASON CITY     SUNNY     64  44  48 NW12      30.21R
FOREST CITY *    N/A     64  37  36 N8        30.20S
WEBSTER CITY * MOSUNNY   64  54  68 VRB5G12   30.19S
IOWA FALLS *   CLOUDY    62  54  74 NW7       30.21S
$$

IAZ007>011-017>019-026>030-037>042-050>054-066-261600-
   NORTHEAST IOWA

CITY           SKY/WX    TMP DP  RH WIND       PRES   REMARKS
CEDAR RAPIDS   CLOUDY    64  52  64 NW13      30.17F
CHARLES CITY * SUNNY     63  45  51 NW10      30.19R
CLINTON *      SUNNY     66  50  56 NW16      30.15F
DECORAH *      SUNNY     61  46  59 NW14      30.15F
DUBUQUE        MOSUNNY   63  49  60 NW12      30.15F
MONTICELLO *   SUNNY     66  52  59 VRB8      30.15S
OELWEIN *      PTSUNNY   63  52  67 N10       30.18S
WATERLOO       MOSUNNY   64  48  56 NW9       30.17S
$$

IAZ064-065-067-068-078-261600-
   EAST CENTRAL IOWA

CITY           SKY/WX    TMP DP  RH WIND       PRES   REMARKS
DAVENPORT      MOSUNNY   65  52  62 W13       30.17S
IOWA CITY      MOSUNNY   67  51  56 W15       30.20S
MT. PLEASANT * CLOUDY    58  53  83 W8        30.22R
MUSCATINE *    PTSUNNY   64  50  59 W10       30.19S
QUAD CITIES    PTSUNNY   64  51  62 W13       30.17F
$$

IAZ062-063-075>077-085>089-095>099-261600-
   SOUTHEAST IOWA

CITY           SKY/WX    TMP DP  RH WIND       PRES   REMARKS
BURLINGTON     LGT RAIN  60  54  80 N10       30.20F
FAIRFIELD *    CLOUDY    59  52  77 SW8       30.20F
FORT MADISON * LGT RAIN  59  55  88 W8        30.22S
KEOKUK *       LGT RAIN  57  54  88 NW9       30.24R
OSKALOOSA *      N/A     57  53  86 W6        30.22F
CENTERVILLE *  PTSUNNY   57  55  94 CALM      30.27F
OTTUMWA        CLOUDY    57  55  93 W7        30.21R
WASHINGTON *   PTSUNNY   61  54  77 W9        30.22R
$$

ABBREVIATIONS USED IN REMARKS
   TC - TEMPERATURES IN CELSIUS
  WCI - WIND CHILL INDEX
   HX - HEAT INDEX
  VSB - VISIBILITY
$$




USA.gov is the U.S. government's official web portal to all federal, state and local government web resources and services.